Year,Month,Day,Hour,Minute,Value (Times are PST for temperature in C)
2012,04,06,00,00,2.90
2012,04,06,00,01,3.00
2012,04,06,00,02,3.00
2012,04,06,00,03,3.10
2012,04,06,00,04,3.10
2012,04,06,00,05,3.10
2012,04,06,00,06,3.10
2012,04,06,00,07,3.10
2012,04,06,00,08,3.10
2012,04,06,00,09,3.10
2012,04,06,00,10,3.00
2012,04,06,00,11,3.00
2012,04,06,00,12,3.00
2012,04,06,00,13,3.00
2012,04,06,00,14,2.90
2012,04,06,00,15,2.90
2012,04,06,00,16,2.90
2012,04,06,00,17,2.80
2012,04,06,00,18,2.80
2012,04,06,00,19,2.80
2012,04,06,00,20,2.80
2012,04,06,00,21,2.70
2012,04,06,00,22,2.70
2012,04,06,00,23,2.70
2012,04,06,00,24,2.60
2012,04,06,00,25,2.60
2012,04,06,00,26,2.50
2012,04,06,00,27,2.50
2012,04,06,00,28,2.50
2012,04,06,00,29,2.40
2012,04,06,00,30,2.40
2012,04,06,00,31,2.40
2012,04,06,00,32,2.40
2012,04,06,00,33,2.30
2012,04,06,00,34,2.30
2012,04,06,00,35,2.30
2012,04,06,00,36,2.30
2012,04,06,00,37,2.30
2012,04,06,00,38,2.20
2012,04,06,00,39,2.20
2012,04,06,00,40,2.20
2012,04,06,00,41,2.20
2012,04,06,00,42,2.20
2012,04,06,00,43,2.20
2012,04,06,00,44,2.20
2012,04,06,00,45,2.10
2012,04,06,00,46,2.10
2012,04,06,00,47,2.10
2012,04,06,00,48,2.10
2012,04,06,00,49,2.10
2012,04,06,00,50,2.10
2012,04,06,00,51,2.10
2012,04,06,00,52,2.00
2012,04,06,00,53,2.00
2012,04,06,00,54,2.00
2012,04,06,00,55,2.00
2012,04,06,00,56,2.00
2012,04,06,00,57,2.00
2012,04,06,00,58,2.00
2012,04,06,00,59,2.00
2012,04,06,01,00,2.00
2012,04,06,01,01,2.00
2012,04,06,01,02,1.90
2012,04,06,01,03,1.90
2012,04,06,01,04,1.90
2012,04,06,01,05,1.90
2012,04,06,01,06,1.90
2012,04,06,01,07,1.90
2012,04,06,01,08,1.90
2012,04,06,01,09,1.90
2012,04,06,01,10,1.90
2012,04,06,01,11,1.90
2012,04,06,01,12,1.80
2012,04,06,01,13,1.80
2012,04,06,01,14,1.80
2012,04,06,01,15,1.80
2012,04,06,01,16,1.80
2012,04,06,01,17,1.80
2012,04,06,01,18,1.80
2012,04,06,01,19,1.80
2012,04,06,01,20,1.80
2012,04,06,01,21,1.70
2012,04,06,01,22,1.70
2012,04,06,01,23,1.70
2012,04,06,01,24,1.70
2012,04,06,01,25,1.70
2012,04,06,01,26,1.70
2012,04,06,01,27,1.70
2012,04,06,01,28,1.70
2012,04,06,01,29,1.70
2012,04,06,01,30,1.70
2012,04,06,01,31,1.70
2012,04,06,01,32,1.70
2012,04,06,01,33,1.70
2012,04,06,01,34,1.70
2012,04,06,01,35,1.70
2012,04,06,01,36,1.70
2012,04,06,01,37,1.70
2012,04,06,01,38,1.70
2012,04,06,01,39,1.70
2012,04,06,01,40,1.70
2012,04,06,01,41,1.70
2012,04,06,01,42,1.70
2012,04,06,01,43,1.70
2012,04,06,01,44,1.70
2012,04,06,01,45,1.70
2012,04,06,01,46,1.70
2012,04,06,01,47,1.60
2012,04,06,01,48,1.60
2012,04,06,01,49,1.60
2012,04,06,01,50,1.60
2012,04,06,01,51,1.60
2012,04,06,01,52,1.60
2012,04,06,01,53,1.60
2012,04,06,01,54,1.60
2012,04,06,01,55,1.60
2012,04,06,01,56,1.60
2012,04,06,01,57,1.60
2012,04,06,01,58,1.60
2012,04,06,01,59,1.50
2012,04,06,02,00,1.50
2012,04,06,02,01,1.50
2012,04,06,02,02,1.50
2012,04,06,02,03,1.50
2012,04,06,02,04,1.40
2012,04,06,02,05,1.40
2012,04,06,02,06,1.40
2012,04,06,02,07,1.40
2012,04,06,02,08,1.40
2012,04,06,02,09,1.40
2012,04,06,02,10,1.40
2012,04,06,02,11,1.40
2012,04,06,02,12,1.30
2012,04,06,02,13,1.30
2012,04,06,02,14,1.30
2012,04,06,02,15,1.30
2012,04,06,02,16,1.30
2012,04,06,02,17,1.30
2012,04,06,02,18,1.30
2012,04,06,02,19,1.30
2012,04,06,02,20,1.20
2012,04,06,02,21,1.20
2012,04,06,02,22,1.20
2012,04,06,02,23,1.20
2012,04,06,02,24,1.20
2012,04,06,02,25,1.20
2012,04,06,02,26,1.20
2012,04,06,02,27,1.20
2012,04,06,02,28,1.20
2012,04,06,02,29,1.20
2012,04,06,02,30,1.20
2012,04,06,02,31,1.20
2012,04,06,02,32,1.20
2012,04,06,02,33,1.10
2012,04,06,02,34,1.10
2012,04,06,02,35,1.10
2012,04,06,02,36,1.10
2012,04,06,02,37,1.10
2012,04,06,02,38,1.10
2012,04,06,02,39,1.10
2012,04,06,02,40,1.10
2012,04,06,02,41,1.10
2012,04,06,02,42,1.10
2012,04,06,02,43,1.10
2012,04,06,02,44,1.10
2012,04,06,02,45,1.00
2012,04,06,02,46,1.00
2012,04,06,02,47,1.00
2012,04,06,02,48,0.90
2012,04,06,02,49,0.90
2012,04,06,02,50,0.90
2012,04,06,02,51,0.90
2012,04,06,02,52,0.90
2012,04,06,02,53,0.80
2012,04,06,02,54,0.80
2012,04,06,02,55,0.80
2012,04,06,02,56,0.80
2012,04,06,02,57,0.80
2012,04,06,02,58,0.80
2012,04,06,02,59,0.80
2012,04,06,03,00,0.80
2012,04,06,03,01,0.80
2012,04,06,03,02,0.80
2012,04,06,03,03,0.80
2012,04,06,03,04,0.80
2012,04,06,03,05,0.80
2012,04,06,03,06,0.80
2012,04,06,03,07,0.80
2012,04,06,03,08,0.80
2012,04,06,03,09,0.80
2012,04,06,03,10,0.80
2012,04,06,03,11,0.70
2012,04,06,03,12,0.70
2012,04,06,03,13,0.70
2012,04,06,03,14,0.70
2012,04,06,03,15,0.70
2012,04,06,03,16,0.70
2012,04,06,03,17,0.70
2012,04,06,03,18,0.70
2012,04,06,03,19,0.70
2012,04,06,03,20,0.70
2012,04,06,03,21,0.70
2012,04,06,03,22,0.70
2012,04,06,03,23,0.70
2012,04,06,03,24,0.70
2012,04,06,03,25,0.70
2012,04,06,03,26,0.60
2012,04,06,03,27,0.60
2012,04,06,03,28,0.60
2012,04,06,03,29,0.60
2012,04,06,03,30,0.60
2012,04,06,03,31,0.60
2012,04,06,03,32,0.60
2012,04,06,03,33,0.60
2012,04,06,03,34,0.60
2012,04,06,03,35,0.60
2012,04,06,03,36,0.60
2012,04,06,03,37,0.60
2012,04,06,03,38,0.60
2012,04,06,03,39,0.60
2012,04,06,03,40,0.60
2012,04,06,03,41,0.60
2012,04,06,03,42,0.60
2012,04,06,03,43,0.60
2012,04,06,03,44,0.60
2012,04,06,03,45,0.60
2012,04,06,03,46,0.60
2012,04,06,03,47,0.60
2012,04,06,03,48,0.60
2012,04,06,03,49,0.60
2012,04,06,03,50,0.60
2012,04,06,03,51,0.60
2012,04,06,03,52,0.60
2012,04,06,03,53,0.60
2012,04,06,03,54,0.60
2012,04,06,03,55,0.60
2012,04,06,03,56,0.60
2012,04,06,03,57,0.50
2012,04,06,03,58,0.50
2012,04,06,03,59,0.50
2012,04,06,04,00,0.50
2012,04,06,04,01,0.40
2012,04,06,04,02,0.40
2012,04,06,04,03,0.40
2012,04,06,04,04,0.40
2012,04,06,04,05,0.40
2012,04,06,04,06,0.40
2012,04,06,04,07,0.40
2012,04,06,04,08,0.30
2012,04,06,04,09,0.30
2012,04,06,04,10,0.30
2012,04,06,04,11,0.30
2012,04,06,04,12,0.30
2012,04,06,04,13,0.30
2012,04,06,04,14,0.30
2012,04,06,04,15,0.30
2012,04,06,04,16,0.30
2012,04,06,04,17,0.30
2012,04,06,04,18,0.30
2012,04,06,04,19,0.30
2012,04,06,04,20,0.30
2012,04,06,04,21,0.30
2012,04,06,04,22,0.30
2012,04,06,04,23,0.30
2012,04,06,04,24,0.30
2012,04,06,04,25,0.30
2012,04,06,04,26,0.20
2012,04,06,04,27,0.20
2012,04,06,04,28,0.20
2012,04,06,04,29,0.20
2012,04,06,04,30,0.20
2012,04,06,04,31,0.20
2012,04,06,04,32,0.20
2012,04,06,04,33,0.10
2012,04,06,04,34,0.10
2012,04,06,04,35,0.10
2012,04,06,04,36,0.10
2012,04,06,04,37,0.10
2012,04,06,04,38,0.10
2012,04,06,04,39,0.10
2012,04,06,04,40,0.10
2012,04,06,04,41,0.00
2012,04,06,04,42,0.00
2012,04,06,04,43,0.00
2012,04,06,04,44,0.00
2012,04,06,04,45,0.00
2012,04,06,04,46,0.00
2012,04,06,04,47,0.00
2012,04,06,04,48,0.00
2012,04,06,04,49,0.00
2012,04,06,04,50,0.00
2012,04,06,04,51,-0.10
2012,04,06,04,52,-0.10
2012,04,06,04,53,-0.10
2012,04,06,04,54,-0.10
2012,04,06,04,55,-0.10
2012,04,06,04,56,-0.10
2012,04,06,04,57,-0.10
2012,04,06,04,58,-0.10
2012,04,06,04,59,-0.10
2012,04,06,05,00,-0.10
2012,04,06,05,01,-0.10
2012,04,06,05,02,-0.10
2012,04,06,05,03,-0.10
2012,04,06,05,04,-0.10
2012,04,06,05,05,-0.10
2012,04,06,05,06,-0.10
2012,04,06,05,07,-0.10
2012,04,06,05,08,-0.10
2012,04,06,05,09,-0.20
2012,04,06,05,10,-0.20
2012,04,06,05,11,-0.20
2012,04,06,05,12,-0.20
2012,04,06,05,13,-0.20
2012,04,06,05,14,-0.20
2012,04,06,05,15,-0.20
2012,04,06,05,16,-0.20
2012,04,06,05,17,-0.20
2012,04,06,05,18,-0.20
2012,04,06,05,19,-0.20
2012,04,06,05,20,-0.20
2012,04,06,05,21,-0.20
2012,04,06,05,22,-0.20
2012,04,06,05,23,-0.20
2012,04,06,05,24,-0.20
2012,04,06,05,25,-0.20
2012,04,06,05,26,-0.20
2012,04,06,05,27,-0.20
2012,04,06,05,28,-0.20
2012,04,06,05,29,-0.20
2012,04,06,05,30,-0.20
2012,04,06,05,31,-0.20
2012,04,06,05,32,-0.20
2012,04,06,05,33,-0.20
2012,04,06,05,34,-0.20
2012,04,06,05,35,-0.20
2012,04,06,05,36,-0.20
2012,04,06,05,37,-0.20
2012,04,06,05,38,-0.20
2012,04,06,05,39,-0.20
2012,04,06,05,40,-0.20
2012,04,06,05,41,-0.20
2012,04,06,05,42,-0.20
2012,04,06,05,43,-0.20
2012,04,06,05,44,-0.20
2012,04,06,05,45,-0.20
2012,04,06,05,46,-0.20
2012,04,06,05,47,-0.20
2012,04,06,05,48,-0.20
2012,04,06,05,49,-0.20
2012,04,06,05,50,-0.20
2012,04,06,05,51,-0.20
2012,04,06,05,52,-0.20
2012,04,06,05,53,-0.20
2012,04,06,05,54,-0.20
2012,04,06,05,55,-0.20
2012,04,06,05,56,-0.20
2012,04,06,05,57,-0.20
2012,04,06,05,58,-0.20
2012,04,06,05,59,-0.30
2012,04,06,06,00,-0.30
2012,04,06,06,01,-0.30
2012,04,06,06,02,-0.30
2012,04,06,06,03,-0.30
2012,04,06,06,04,-0.30
2012,04,06,06,05,-0.30
2012,04,06,06,06,-0.40
2012,04,06,06,07,-0.40
2012,04,06,06,08,-0.40
2012,04,06,06,09,-0.40
2012,04,06,06,10,-0.30
2012,04,06,06,11,-0.30
2012,04,06,06,12,-0.30
2012,04,06,06,13,-0.30
2012,04,06,06,14,-0.30
2012,04,06,06,15,-0.30
2012,04,06,06,16,-0.30
2012,04,06,06,17,-0.20
2012,04,06,06,18,-0.30
2012,04,06,06,19,-0.30
2012,04,06,06,20,-0.30
2012,04,06,06,21,-0.30
2012,04,06,06,22,-0.30
2012,04,06,06,23,-0.30
2012,04,06,06,24,-0.30
2012,04,06,06,25,-0.30
2012,04,06,06,26,-0.30
2012,04,06,06,27,-0.30
2012,04,06,06,28,-0.30
2012,04,06,06,29,-0.30
2012,04,06,06,30,-0.30
2012,04,06,06,31,-0.20
2012,04,06,06,32,-0.20
2012,04,06,06,33,-0.20
2012,04,06,06,34,-0.20
2012,04,06,06,35,-0.20
2012,04,06,06,36,-0.20
2012,04,06,06,37,-0.20
2012,04,06,06,38,-0.30
2012,04,06,06,39,-0.30
2012,04,06,06,40,-0.30
2012,04,06,06,41,-0.30
2012,04,06,06,42,-0.30
2012,04,06,06,43,-0.30
2012,04,06,06,44,-0.30
2012,04,06,06,45,-0.30
2012,04,06,06,46,-0.30
2012,04,06,06,47,-0.20
2012,04,06,06,48,-0.20
2012,04,06,06,49,-0.20
2012,04,06,06,50,-0.20
2012,04,06,06,51,-0.20
2012,04,06,06,52,-0.20
2012,04,06,06,53,-0.20
2012,04,06,06,54,-0.20
2012,04,06,06,55,-0.20
2012,04,06,06,56,-0.20
2012,04,06,06,57,-0.20
2012,04,06,06,58,-0.20
2012,04,06,06,59,-0.20
2012,04,06,07,00,-0.20
2012,04,06,07,01,-0.20
2012,04,06,07,02,-0.20
2012,04,06,07,03,-0.20
2012,04,06,07,04,-0.20
2012,04,06,07,05,-0.20
2012,04,06,07,06,-0.20
2012,04,06,07,07,-0.20
2012,04,06,07,08,-0.20
2012,04,06,07,09,-0.10
2012,04,06,07,10,-0.10
2012,04,06,07,11,-0.10
2012,04,06,07,12,-0.10
2012,04,06,07,13,0.00
2012,04,06,07,14,0.00
2012,04,06,07,15,0.00
2012,04,06,07,16,0.00
2012,04,06,07,17,0.10
2012,04,06,07,18,0.10
2012,04,06,07,19,0.10
2012,04,06,07,20,0.10
2012,04,06,07,21,0.10
2012,04,06,07,22,0.20
2012,04,06,07,23,0.20
2012,04,06,07,24,0.20
2012,04,06,07,25,0.20
2012,04,06,07,26,0.30
2012,04,06,07,27,0.40
2012,04,06,07,28,0.50
2012,04,06,07,29,0.50
2012,04,06,07,30,0.70
2012,04,06,07,31,0.80
2012,04,06,07,32,0.80
2012,04,06,07,33,0.90
2012,04,06,07,34,0.90
2012,04,06,07,35,1.00
2012,04,06,07,36,1.10
2012,04,06,07,37,1.10
2012,04,06,07,38,1.20
2012,04,06,07,39,1.20
2012,04,06,07,40,1.20
2012,04,06,07,41,1.30
2012,04,06,07,42,1.30
2012,04,06,07,43,1.30
2012,04,06,07,44,1.30
2012,04,06,07,45,1.40
2012,04,06,07,46,1.50
2012,04,06,07,47,1.50
2012,04,06,07,48,1.60
2012,04,06,07,49,1.60
2012,04,06,07,50,1.60
2012,04,06,07,51,1.60
2012,04,06,07,52,1.70
2012,04,06,07,53,1.80
2012,04,06,07,54,1.90
2012,04,06,07,55,2.00
2012,04,06,07,56,2.00
2012,04,06,07,57,2.10
2012,04,06,07,58,2.20
2012,04,06,07,59,2.30
2012,04,06,08,00,2.30
2012,04,06,08,01,2.40
2012,04,06,08,02,2.50
2012,04,06,08,03,2.50
2012,04,06,08,04,2.60
2012,04,06,08,05,2.60
2012,04,06,08,06,2.70
2012,04,06,08,07,2.80
2012,04,06,08,08,2.80
2012,04,06,08,09,3.00
2012,04,06,08,10,3.10
2012,04,06,08,11,3.20
2012,04,06,08,12,3.20
2012,04,06,08,13,3.30
2012,04,06,08,14,3.40
2012,04,06,08,15,3.50
2012,04,06,08,16,3.60
2012,04,06,08,17,3.70
2012,04,06,08,18,3.80
2012,04,06,08,19,3.90
2012,04,06,08,20,4.00
2012,04,06,08,21,4.20
2012,04,06,08,22,4.30
2012,04,06,08,23,4.40
2012,04,06,08,24,4.50
2012,04,06,08,25,4.50
2012,04,06,08,26,4.60
2012,04,06,08,27,4.70
2012,04,06,08,28,4.70
2012,04,06,08,29,4.80
2012,04,06,08,30,4.90
2012,04,06,08,31,5.00
2012,04,06,08,32,5.10
2012,04,06,08,33,5.20
2012,04,06,08,34,5.30
2012,04,06,08,35,5.50
2012,04,06,08,36,5.60
2012,04,06,08,37,5.80
2012,04,06,08,38,6.00
2012,04,06,08,39,6.20
2012,04,06,08,40,6.30
2012,04,06,08,41,6.40
2012,04,06,08,42,6.50
2012,04,06,08,43,6.60
2012,04,06,08,44,6.60
2012,04,06,08,45,6.60
2012,04,06,08,46,6.50
2012,04,06,08,47,6.50
2012,04,06,08,48,6.40
2012,04,06,08,49,6.40
2012,04,06,08,50,6.40
2012,04,06,08,51,6.40
2012,04,06,08,52,6.40
2012,04,06,08,53,6.40
2012,04,06,08,54,6.40
2012,04,06,08,55,6.50
2012,04,06,08,56,6.60
2012,04,06,08,57,6.70
2012,04,06,08,58,6.80
2012,04,06,08,59,7.00
2012,04,06,09,00,7.10
2012,04,06,09,01,7.20
2012,04,06,09,02,7.30
2012,04,06,09,03,7.50
2012,04,06,09,04,7.60
2012,04,06,09,05,7.70
2012,04,06,09,06,7.90
2012,04,06,09,07,8.00
2012,04,06,09,08,8.00
2012,04,06,09,09,8.10
2012,04,06,09,10,8.10
2012,04,06,09,11,8.20
2012,04,06,09,12,8.30
2012,04,06,09,13,8.40
2012,04,06,09,14,8.40
2012,04,06,09,15,8.40
2012,04,06,09,16,8.40
2012,04,06,09,17,8.40
2012,04,06,09,18,8.40
2012,04,06,09,19,8.50
2012,04,06,09,20,8.60
2012,04,06,09,21,8.60
2012,04,06,09,22,8.60
2012,04,06,09,23,8.60
2012,04,06,09,24,8.60
2012,04,06,09,25,8.60
2012,04,06,09,26,8.50
2012,04,06,09,27,8.40
2012,04,06,09,28,8.40
2012,04,06,09,29,8.30
2012,04,06,09,30,8.30
2012,04,06,09,31,8.30
2012,04,06,09,32,8.30
2012,04,06,09,33,8.30
2012,04,06,09,34,8.40
2012,04,06,09,35,8.40
2012,04,06,09,36,8.40
2012,04,06,09,37,8.40
2012,04,06,09,38,8.40
2012,04,06,09,39,8.50
2012,04,06,09,40,8.50
2012,04,06,09,41,8.50
2012,04,06,09,42,8.50
2012,04,06,09,43,8.50
2012,04,06,09,44,8.50
2012,04,06,09,45,8.50
2012,04,06,09,46,8.40
2012,04,06,09,47,8.40
2012,04,06,09,48,8.40
2012,04,06,09,49,8.30
2012,04,06,09,50,8.10
2012,04,06,09,51,7.90
2012,04,06,09,52,7.80
2012,04,06,09,53,7.70
2012,04,06,09,54,7.70
2012,04,06,09,55,7.70
2012,04,06,09,56,7.70
2012,04,06,09,57,7.70
2012,04,06,09,58,7.80
2012,04,06,09,59,7.80
2012,04,06,10,00,7.80
2012,04,06,10,01,7.80
2012,04,06,10,02,7.90
2012,04,06,10,03,7.90
2012,04,06,10,04,7.90
2012,04,06,10,05,8.00
2012,04,06,10,06,8.00
2012,04,06,10,07,8.10
2012,04,06,10,08,8.10
2012,04,06,10,09,8.10
2012,04,06,10,10,8.10
2012,04,06,10,11,8.10
2012,04,06,10,12,8.10
2012,04,06,10,13,8.10
2012,04,06,10,14,8.10
2012,04,06,10,15,8.10
2012,04,06,10,16,8.00
2012,04,06,10,17,8.00
2012,04,06,10,18,7.90
2012,04,06,10,19,7.90
2012,04,06,10,20,7.90
2012,04,06,10,21,7.90
2012,04,06,10,22,8.00
2012,04,06,10,23,8.00
2012,04,06,10,24,8.10
2012,04,06,10,25,8.10
2012,04,06,10,26,8.10
2012,04,06,10,27,8.10
2012,04,06,10,28,8.10
2012,04,06,10,29,8.10
2012,04,06,10,30,8.10
2012,04,06,10,31,8.10
2012,04,06,10,32,8.20
2012,04,06,10,33,8.20
2012,04,06,10,34,8.30
2012,04,06,10,35,8.40
2012,04,06,10,36,8.50
2012,04,06,10,37,8.60
2012,04,06,10,38,8.70
2012,04,06,10,39,8.80
2012,04,06,10,40,8.90
2012,04,06,10,41,8.90
2012,04,06,10,42,8.80
2012,04,06,10,43,8.70
2012,04,06,10,44,8.60
2012,04,06,10,45,8.40
2012,04,06,10,46,8.30
2012,04,06,10,47,8.20
2012,04,06,10,48,8.10
2012,04,06,10,49,8.00
2012,04,06,10,50,8.00
2012,04,06,10,51,7.90
2012,04,06,10,52,8.00
2012,04,06,10,53,8.00
2012,04,06,10,54,8.20
2012,04,06,10,55,8.30
2012,04,06,10,56,8.50
2012,04,06,10,57,8.70
2012,04,06,10,58,8.90
2012,04,06,10,59,9.00
2012,04,06,11,00,9.20
2012,04,06,11,01,9.30
2012,04,06,11,02,9.30
2012,04,06,11,03,9.30
2012,04,06,11,04,9.20
2012,04,06,11,05,9.10
2012,04,06,11,06,9.00
2012,04,06,11,07,8.90
2012,04,06,11,08,8.90
2012,04,06,11,09,8.90
2012,04,06,11,10,8.80
2012,04,06,11,11,8.70
2012,04,06,11,12,8.70
2012,04,06,11,13,8.60
2012,04,06,11,14,8.50
2012,04,06,11,15,8.30
2012,04,06,11,16,8.30
2012,04,06,11,17,8.20
2012,04,06,11,18,8.20
2012,04,06,11,19,8.20
2012,04,06,11,20,8.20
2012,04,06,11,21,8.20
2012,04,06,11,22,8.20
2012,04,06,11,23,8.30
2012,04,06,11,24,8.30
2012,04,06,11,25,8.30
2012,04,06,11,26,8.40
2012,04,06,11,27,8.40
2012,04,06,11,28,8.40
2012,04,06,11,29,8.40
2012,04,06,11,30,8.40
2012,04,06,11,31,8.40
2012,04,06,11,32,8.30
2012,04,06,11,33,8.30
2012,04,06,11,34,8.30
2012,04,06,11,35,8.20
2012,04,06,11,36,8.30
2012,04,06,11,37,8.30
2012,04,06,11,38,8.30
2012,04,06,11,39,8.20
2012,04,06,11,40,8.20
2012,04,06,11,41,8.20
2012,04,06,11,42,8.20
2012,04,06,11,43,8.20
2012,04,06,11,44,8.20
2012,04,06,11,45,8.30
2012,04,06,11,46,8.30
2012,04,06,11,47,8.30
2012,04,06,11,48,8.30
2012,04,06,11,49,8.30
2012,04,06,11,50,8.40
2012,04,06,11,51,8.40
2012,04,06,11,52,8.50
2012,04,06,11,53,8.50
2012,04,06,11,54,8.60
2012,04,06,11,55,8.60
2012,04,06,11,56,8.60
2012,04,06,11,57,8.60
2012,04,06,11,58,8.50
2012,04,06,11,59,8.50
2012,04,06,12,00,8.50
2012,04,06,12,01,8.60
2012,04,06,12,02,8.50
2012,04,06,12,03,8.50
2012,04,06,12,04,8.50
2012,04,06,12,05,8.60
2012,04,06,12,06,8.60
2012,04,06,12,07,8.50
2012,04,06,12,08,8.40
2012,04,06,12,09,8.20
2012,04,06,12,10,8.20
2012,04,06,12,11,8.20
2012,04,06,12,12,8.20
2012,04,06,12,13,8.20
2012,04,06,12,14,8.30
2012,04,06,12,15,8.30
2012,04,06,12,16,8.30
2012,04,06,12,17,8.40
2012,04,06,12,18,8.40
2012,04,06,12,19,8.40
2012,04,06,12,20,8.30
2012,04,06,12,21,8.30
2012,04,06,12,22,8.30
2012,04,06,12,23,8.30
2012,04,06,12,24,8.30
2012,04,06,12,25,8.20
2012,04,06,12,26,8.10
2012,04,06,12,27,8.10
2012,04,06,12,28,8.00
2012,04,06,12,29,8.00
2012,04,06,12,30,7.90
2012,04,06,12,31,7.80
2012,04,06,12,32,7.80
2012,04,06,12,33,7.70
2012,04,06,12,34,7.70
2012,04,06,12,35,7.60
2012,04,06,12,36,7.60
2012,04,06,12,37,7.60
2012,04,06,12,38,7.60
2012,04,06,12,39,7.50
2012,04,06,12,40,7.50
2012,04,06,12,41,7.50
2012,04,06,12,42,7.50
2012,04,06,12,43,7.50
2012,04,06,12,44,7.60
2012,04,06,12,45,7.60
2012,04,06,12,46,7.70
2012,04,06,12,47,7.70
2012,04,06,12,48,7.80
2012,04,06,12,49,7.90
2012,04,06,12,50,8.00
2012,04,06,12,51,8.10
2012,04,06,12,52,8.20
2012,04,06,12,53,8.30
2012,04,06,12,54,8.40
2012,04,06,12,55,8.60
2012,04,06,12,56,8.70
2012,04,06,12,57,8.80
2012,04,06,12,58,8.90
2012,04,06,12,59,9.00
2012,04,06,13,00,9.10
2012,04,06,13,01,9.20
2012,04,06,13,02,9.20
2012,04,06,13,03,9.30
2012,04,06,13,04,9.30
2012,04,06,13,05,9.40
2012,04,06,13,06,9.50
2012,04,06,13,07,9.60
2012,04,06,13,08,9.80
2012,04,06,13,09,9.80
2012,04,06,13,10,9.80
2012,04,06,13,11,9.90
2012,04,06,13,12,9.90
2012,04,06,13,13,9.90
2012,04,06,13,14,9.70
2012,04,06,13,15,9.50
2012,04,06,13,16,9.40
2012,04,06,13,17,9.20
2012,04,06,13,18,9.10
2012,04,06,13,19,9.00
2012,04,06,13,20,8.90
2012,04,06,13,21,8.90
2012,04,06,13,22,8.90
2012,04,06,13,23,8.90
2012,04,06,13,24,8.90
2012,04,06,13,25,8.80
2012,04,06,13,26,8.80
2012,04,06,13,27,8.80
2012,04,06,13,28,8.80
2012,04,06,13,29,8.80
2012,04,06,13,30,8.80
2012,04,06,13,31,8.80
2012,04,06,13,32,8.90
2012,04,06,13,33,8.90
2012,04,06,13,34,8.90
2012,04,06,13,35,8.90
2012,04,06,13,36,9.00
2012,04,06,13,37,9.10
2012,04,06,13,38,9.10
2012,04,06,13,39,9.10
2012,04,06,13,40,9.10
2012,04,06,13,41,9.10
2012,04,06,13,42,9.00
2012,04,06,13,43,9.00
2012,04,06,13,44,9.00
2012,04,06,13,45,9.00
2012,04,06,13,46,8.90
2012,04,06,13,47,8.90
2012,04,06,13,48,8.90
2012,04,06,13,49,8.90
2012,04,06,13,50,8.90
2012,04,06,13,51,8.80
2012,04,06,13,52,8.80
2012,04,06,13,53,8.80
2012,04,06,13,54,8.80
2012,04,06,13,55,8.80
2012,04,06,13,56,8.80
2012,04,06,13,57,8.80
2012,04,06,13,58,8.90
2012,04,06,13,59,9.00
2012,04,06,14,00,9.20
2012,04,06,14,01,9.40
2012,04,06,14,02,9.50
2012,04,06,14,03,9.50
2012,04,06,14,04,9.50
2012,04,06,14,05,9.60
2012,04,06,14,06,9.70
2012,04,06,14,07,9.80
2012,04,06,14,08,9.90
2012,04,06,14,09,10.00
2012,04,06,14,10,10.10
2012,04,06,14,11,10.30
2012,04,06,14,12,10.30
2012,04,06,14,13,10.20
2012,04,06,14,14,10.20
2012,04,06,14,15,10.00
2012,04,06,14,16,10.00
2012,04,06,14,17,10.00
2012,04,06,14,18,10.00
2012,04,06,14,19,10.00
2012,04,06,14,20,9.90
2012,04,06,14,21,9.90
2012,04,06,14,22,9.90
2012,04,06,14,23,9.80
2012,04,06,14,24,9.80
2012,04,06,14,25,9.80
2012,04,06,14,26,9.80
2012,04,06,14,27,9.80
2012,04,06,14,28,9.80
2012,04,06,14,29,9.70
2012,04,06,14,30,9.70
2012,04,06,14,31,9.60
2012,04,06,14,32,9.70
2012,04,06,14,33,9.80
2012,04,06,14,34,9.90
2012,04,06,14,35,10.10
2012,04,06,14,36,10.20
2012,04,06,14,37,10.20
2012,04,06,14,38,10.30
2012,04,06,14,39,10.30
2012,04,06,14,40,10.30
2012,04,06,14,41,10.20
2012,04,06,14,42,10.30
2012,04,06,14,43,10.30
2012,04,06,14,44,10.20
2012,04,06,14,45,10.10
2012,04,06,14,46,10.00
2012,04,06,14,47,10.00
2012,04,06,14,48,9.80
2012,04,06,14,49,9.70
2012,04,06,14,50,9.60
2012,04,06,14,51,9.60
2012,04,06,14,52,9.60
2012,04,06,14,53,9.60
2012,04,06,14,54,9.70
2012,04,06,14,55,9.70
2012,04,06,14,56,9.70
2012,04,06,14,57,9.60
2012,04,06,14,58,9.60
2012,04,06,14,59,9.60
2012,04,06,15,00,9.60
2012,04,06,15,01,9.60
2012,04,06,15,02,9.70
2012,04,06,15,03,9.90
2012,04,06,15,04,10.00
2012,04,06,15,05,10.10
2012,04,06,15,06,10.20
2012,04,06,15,07,10.30
2012,04,06,15,08,10.30
2012,04,06,15,09,10.40
2012,04,06,15,10,10.40
2012,04,06,15,11,10.40
2012,04,06,15,12,10.30
2012,04,06,15,13,10.20
2012,04,06,15,14,10.00
2012,04,06,15,15,9.90
2012,04,06,15,16,9.90
2012,04,06,15,17,9.80
2012,04,06,15,18,9.90
2012,04,06,15,19,9.90
2012,04,06,15,20,10.00
2012,04,06,15,21,10.00
2012,04,06,15,22,10.10
2012,04,06,15,23,10.10
2012,04,06,15,24,10.10
2012,04,06,15,25,10.10
2012,04,06,15,26,10.00
2012,04,06,15,27,10.00
2012,04,06,15,28,9.80
2012,04,06,15,29,9.80
2012,04,06,15,30,9.80
2012,04,06,15,31,9.80
2012,04,06,15,32,9.90
2012,04,06,15,33,9.90
2012,04,06,15,34,9.90
2012,04,06,15,35,9.70
2012,04,06,15,36,9.60
2012,04,06,15,37,9.60
2012,04,06,15,38,9.60
2012,04,06,15,39,9.60
2012,04,06,15,40,9.60
2012,04,06,15,41,9.60
2012,04,06,15,42,9.50
2012,04,06,15,43,9.40
2012,04,06,15,44,9.30
2012,04,06,15,45,9.20
2012,04,06,15,46,9.10
2012,04,06,15,47,9.00
2012,04,06,15,48,8.90
2012,04,06,15,49,8.90
2012,04,06,15,50,8.90
2012,04,06,15,51,8.90
2012,04,06,15,52,9.00
2012,04,06,15,53,9.00
2012,04,06,15,54,9.20
2012,04,06,15,55,9.20
2012,04,06,15,56,9.30
2012,04,06,15,57,9.30
2012,04,06,15,58,9.20
2012,04,06,15,59,9.20
2012,04,06,16,00,9.20
2012,04,06,16,01,9.20
2012,04,06,16,02,9.20
2012,04,06,16,03,9.10
2012,04,06,16,04,9.10
2012,04,06,16,05,9.10
2012,04,06,16,06,9.20
2012,04,06,16,07,9.20
2012,04,06,16,08,9.10
2012,04,06,16,09,9.10
2012,04,06,16,10,9.10
2012,04,06,16,11,9.10
2012,04,06,16,12,9.10
2012,04,06,16,13,9.10
2012,04,06,16,14,9.10
2012,04,06,16,15,9.10
2012,04,06,16,16,9.10
2012,04,06,16,17,9.00
2012,04,06,16,18,9.00
2012,04,06,16,19,9.00
2012,04,06,16,20,9.00
2012,04,06,16,21,9.00
2012,04,06,16,22,9.10
2012,04,06,16,23,9.10
2012,04,06,16,24,9.20
2012,04,06,16,25,9.10
2012,04,06,16,26,9.10
2012,04,06,16,27,9.10
2012,04,06,16,28,9.00
2012,04,06,16,29,9.00
2012,04,06,16,30,8.90
2012,04,06,16,31,8.90
2012,04,06,16,32,8.80
2012,04,06,16,33,8.70
2012,04,06,16,34,8.70
2012,04,06,16,35,8.60
2012,04,06,16,36,8.60
2012,04,06,16,37,8.70
2012,04,06,16,38,8.70
2012,04,06,16,39,8.70
2012,04,06,16,40,8.80
2012,04,06,16,41,8.80
2012,04,06,16,42,8.90
2012,04,06,16,43,8.90
2012,04,06,16,44,8.90
2012,04,06,16,45,8.90
2012,04,06,16,46,8.90
2012,04,06,16,47,8.90
2012,04,06,16,48,8.90
2012,04,06,16,49,8.90
2012,04,06,16,50,8.90
2012,04,06,16,51,9.00
2012,04,06,16,52,9.10
2012,04,06,16,53,9.20
2012,04,06,16,54,9.30
2012,04,06,16,55,9.30
2012,04,06,16,56,9.30
2012,04,06,16,57,9.30
2012,04,06,16,58,9.40
2012,04,06,16,59,9.40
2012,04,06,17,00,9.40
2012,04,06,17,01,9.50
2012,04,06,17,02,9.60
2012,04,06,17,03,9.70
2012,04,06,17,04,9.80
2012,04,06,17,05,10.00
2012,04,06,17,06,10.10
2012,04,06,17,07,10.20
2012,04,06,17,08,10.10
2012,04,06,17,09,10.10
2012,04,06,17,10,10.10
2012,04,06,17,11,9.90
2012,04,06,17,12,9.80
2012,04,06,17,13,9.70
2012,04,06,17,14,9.60
2012,04,06,17,15,9.50
2012,04,06,17,16,9.50
2012,04,06,17,17,9.60
2012,04,06,17,18,9.60
2012,04,06,17,19,9.70
2012,04,06,17,20,9.70
2012,04,06,17,21,9.80
2012,04,06,17,22,9.80
2012,04,06,17,23,9.80
2012,04,06,17,24,9.90
2012,04,06,17,25,10.00
2012,04,06,17,26,10.10
2012,04,06,17,27,10.20
2012,04,06,17,28,10.40
2012,04,06,17,29,10.50
2012,04,06,17,30,10.60
2012,04,06,17,31,10.70
2012,04,06,17,32,10.70
2012,04,06,17,33,10.60
2012,04,06,17,34,10.40
2012,04,06,17,35,10.20
2012,04,06,17,36,10.00
2012,04,06,17,37,9.80
2012,04,06,17,38,9.70
2012,04,06,17,39,9.60
2012,04,06,17,40,9.50
2012,04,06,17,41,9.50
2012,04,06,17,42,9.50
2012,04,06,17,43,9.50
2012,04,06,17,44,9.60
2012,04,06,17,45,9.60
2012,04,06,17,46,9.60
2012,04,06,17,47,9.60
2012,04,06,17,48,9.60
2012,04,06,17,49,9.60
2012,04,06,17,50,9.50
2012,04,06,17,51,9.50
2012,04,06,17,52,9.50
2012,04,06,17,53,9.50
2012,04,06,17,54,9.50
2012,04,06,17,55,9.50
2012,04,06,17,56,9.50
2012,04,06,17,57,9.60